TimeMDT,TemperatureF,Dew PointF,Humidity,Sea Level PressureIn,VisibilityMPH,Wind Direction,Wind SpeedMPH,Gust SpeedMPH,PrecipitationIn,Events,Conditions,WindDirDegrees,DateUTC
12:53 AM,28.0,14.0,56,30.05,10.0,Calm,Calm,-,N/A,,Clear,0,2013-10-20 06:53:00
1:53 AM,25.0,14.0,63,30.04,10.0,Calm,Calm,-,N/A,,Clear,0,2013-10-20 07:53:00
2:53 AM,21.9,12.9,68,30.05,10.0,Calm,Calm,-,N/A,,Clear,0,2013-10-20 08:53:00
3:53 AM,21.0,12.0,68,30.04,10.0,Calm,Calm,-,N/A,,Clear,0,2013-10-20 09:53:00
4:53 AM,21.0,12.0,68,30.04,10.0,Calm,Calm,-,N/A,,Clear,0,2013-10-20 10:53:00
5:53 AM,21.0,12.0,68,30.04,10.0,Calm,Calm,-,N/A,,Clear,0,2013-10-20 11:53:00
7:53 AM,19.0,12.0,74,30.09,10.0,Calm,Calm,-,N/A,,Clear,0,2013-10-20 13:53:00
8:53 AM,30.0,15.1,54,30.08,10.0,Calm,Calm,-,N/A,,Clear,0,2013-10-20 14:53:00
9:53 AM,41.0,16.0,36,30.07,10.0,Calm,Calm,-,N/A,,Clear,0,2013-10-20 15:53:00
10:53 AM,51.1,15.1,24,29.99,10.0,Calm,Calm,-,N/A,,Clear,0,2013-10-20 16:53:00
11:53 AM,60.1,12.0,15,29.95,10.0,West,6.9,-,N/A,,Clear,260,2013-10-20 17:53:00
12:53 PM,62.1,10.0,13,29.93,10.0,West,10.4,23.0,N/A,,Clear,280,2013-10-20 18:53:00
1:53 PM,64.0,9.0,12,29.91,10.0,West,12.7,18.4,N/A,,Clear,260,2013-10-20 19:53:00
2:53 PM,64.0,8.1,11,29.90,10.0,West,15.0,21.9,N/A,,Clear,280,2013-10-20 20:53:00
3:53 PM,64.0,6.1,10,29.89,10.0,NW,12.7,20.7,N/A,,Clear,320,2013-10-20 21:53:00
4:53 PM,64.0,7.0,11,29.89,10.0,West,12.7,19.6,N/A,,Clear,280,2013-10-20 22:53:00
5:53 PM,61.0,6.1,11,29.92,10.0,WNW,10.4,-,N/A,,Clear,290,2013-10-20 23:53:00
6:53 PM,53.1,7.0,16,29.96,10.0,Calm,Calm,-,N/A,,Clear,0,2013-10-21 00:53:00
7:53 PM,45.0,10.0,24,30.02,10.0,Calm,Calm,-,N/A,,Clear,0,2013-10-21 01:53:00
8:53 PM,39.9,9.0,28,30.00,10.0,ESE,3.5,-,N/A,,Clear,110,2013-10-21 02:53:00
9:53 PM,39.0,10.9,32,29.98,10.0,Calm,Calm,-,N/A,,Clear,0,2013-10-21 03:53:00
10:53 PM,37.0,10.0,33,29.96,10.0,SSW,3.5,-,N/A,,Clear,200,2013-10-21 04:53:00
11:53 PM,32.0,12.0,44,29.94,10.0,Calm,Calm,-,N/A,,Clear,0,2013-10-21 05:53:00